TITAN 3C TRANSTAGE DEB, 1835

Orbit data source: Space-Track

TITAN 3C TRANSTAGE DEB, 1835 is space debris in LEO originally from a launch on Fri, 15 Oct 1965 UTC launched from the Air Force Eastern Test Range (AFETR). Debris objects in space refer to the collection of defunct objects orbiting the Earth. Examples of debris include non-operational satellites, rocket bodies, and fragments generated from explosions, collisions, or faulty payload assembly.

Loading next visibility...
TITAN 3C TRANSTAGE DEB details
Identifier
1835, 1965-082EA
Orbit
LEO
Last TLE update1 day ago
Origin
Flag of USUSAF SSD (US)
ManufacturerUnknown
MissionSpacecraft
Bus & MotorUnknown
MassUnknown
Launch date (UTC)
1965-10-15 (59 years ago)
Launch vehicleUnknown
Launch site
Air Force Eastern Test Range (AFETR)
Object type
Payload
Rocket body
Debris
Shape & HBRUnknown
Radar Cross SectionSmall (<0.1 m²)

Expand to show TLE details & history

TLE from 1 day ago
0 TITAN 3C TRANSTAGE DEB
1 01835U 65082EA  24355.31903390  .00006806  00000-0  49498-3 0  9992
2 01835  32.3930 218.7340 0012736  49.0085 311.1677 15.02650754165305
Epoch: 2024-12-20T07:39Z
Definitive object data (Epoch: 2024-12-20T07:39:24.528Z)
Latitude-0°
Longitude14.49554°
Altitude551.57 km
Speed7.592 km/s
True Right ascension14h 34m 56s
True Declination0° 00' 00"
Sunlit
Object was in daylight at TLE epoch
Visualization TLE readout
Latitude4.10198°
Longitude179.9106°
Altitude560.032 km
Speed7.582 km/s
Apparent Right ascension01h 40m 01s
Apparent Declination-16° 50' 36"
Sunlit
Object is in full shadow
Visualization observer readout
Local Sidereal Time13:44:51
Azimuth2.95° NNE
Elevation-66.903°
Doppler factor1
Orbital elements
Apogee altitude571.187 km
Perigee altitude553.508 km
Semi-major axis6,940.485 km
Eccentricity0.0012736
Inclination32.393°
RAAN218.734°
Arg. of periapsis49.0085°
True anomaly311.05772°
Mean anomaly311.1677°
Eccentric anomaly311.11272°
Mean motion3.75369 °/min
BSTAR0.00049498
Orbital period95.91 mins
Loading maneuver chart data...

TITAN 3C TRANSTAGE DEB Visibility forecast

Observer location: undefined°, undefined

Span
Click to sort rows by Start time (UTC) header in descending order
Start Az.
Max El. time (UTC)
Max El. Az.
Max El.
End time (UTC)
End Az.
5 mins2024-12-21 18:59:40.693Z204.621° SW2024-12-21 19:01:40.693Z172.849° S18.114°2024-12-21 19:04:40.693Z122.401° SE
5 mins2024-12-21 20:40:40.693Z226.053° WSW2024-12-21 20:42:40.693Z186.219° SSW25.3°2024-12-21 20:45:40.693Z126.142° SE
5 mins2024-12-21 22:21:40.693Z232.528° WSW2024-12-21 22:23:40.693Z196.493° SSW20.499°2024-12-21 22:26:40.693Z145.672° SSE
|